Location: ????????
(37.9452°N, 23.1472°E)
Time: 19:00:29
(UTC+00:00)

Cosmos 2360 Rocket - Pass Details

Date: 18 April 2024
Orbit: 832 x 846 km, 71.0° (Epoch: 27 May)

Event Time Altitude Azimuth Distance (km) Brightness Sun altitude
Exits shadow 22:50:55 22° 9° (N) 1,736 4.3 -40.5°
Drops below altitude 10° 22:52:56 10° 15° (NNE) 2,455 5.3 -40.4°
Sets 22:55:25 0° 19° (NNE) 3,395 6.2 -40.3°
